Regional Weather Roundup
Issued by NWS

Home | Current Version | Previous Version | Text Only | Print | Product List | Glossary Off
Versions: 1 2 3 4 5 6 7 8 9 10 11 12 13 14 15 16 17 18 19 20 21 22 23 24 25 26 27 28 29 30 31 32 33 34 35 36 37 38 39 40 41 42 43 44 45 46 47 48 49 50

000
ASUS43 KBIS 261502
RWRND

NORTH DAKOTA REGIONAL WEATHER ROUNDUP
NATIONAL WEATHER SERVICE BISMARCK ND
1000 AM CDT SUN MAR 26 2017

NOTE: "FAIR" INDICATES FEW OR NO CLOUDS BELOW 12,000 FEET WITH NO
SIGNIFICANT WEATHER AND/OR OBSTRUCTIONS TO VISIBILITY.


NDZ001>003-009>011-017-261600-
NORTHWEST NORTH DAKOTA

CITY           SKY/WX    TMP DP  RH WIND       PRES   REMARKS
WILLISTON      PTSUNNY   46  34  62 S6        29.90S
MINOT          FAIR      46  36  68 CALM      29.90S
MINOT AFB      MOSUNNY   38  35  86 CALM      29.90R
$$

NDZ018>021-031>035-040>046-261600-
SOUTHWEST NORTH DAKOTA

CITY           SKY/WX    TMP DP  RH WIND       PRES   REMARKS
BISMARCK       CLOUDY    41  36  82 S5        29.91F
DICKINSON      FAIR      46  36  68 W9        29.91R
GARRISON         N/A     44  36  73 CALM      29.91S
HETTINGER ARPT CLOUDY    45  36  70 CALM      29.93R
$$

NDZ004>008-012>016-024-026-027-054-261600-
NORTHEAST NORTH DAKOTA

CITY           SKY/WX    TMP DP  RH WIND       PRES   REMARKS
GRAND FORKS    CLOUDY    36  34  92 SW5       29.96S
GRND FRKS AFB  CLOUDY    35  35  99 S8        29.95F
DEVILS LAKE    FAIR      37  33  85 E3        29.92F
$$

NDZ022-023-025-028>030-036>039-047>053-261600-
SOUTHEAST NORTH DAKOTA

CITY           SKY/WX    TMP DP  RH WIND       PRES   REMARKS
FARGO          CLOUDY    36  36 100 SE6       29.97F FOG
JAMESTOWN      PTSUNNY   36  36 100 SW6       29.91F
$$




USA.gov is the U.S. government's official web portal to all federal, state and local government web resources and services.